Погода в Сосновке

Россия / Иркутская область     52°49′13″N   103°23′31″E
темп.,
°C
ветер,
м/с
пор.,
м/с
влажн.,
%
обл.,
%
осадки,
мм/ч
давл.,
гПа
погр.,
м
18 мая, вт
вт1823:00+7зсз3887100 0.1 1011523
02:00+6з3889100 0.6 1011575
05:00+4з2596100 0.1 1012135
08:00+7зсз357465 0.2 1012514
11:00+10з3457100 0.1 10111428
14:00+13зсз244578 0.1 10091571
17:00+15зюз124195 0.0 10041602
20:00+12вюв2455100 0.0 1001117
19 мая, ср
ср1923:00+10юв41063100 0.0 996356
02:00+8юв3686100 1.4 993184
05:00+7сз61491100 2.5 10001308
08:00+6сз61088100 2.7 10061117
11:00+11сз3553100 0.1 10071847
14:00+14зюз1342100 0.1 10051898
17:00+14ююв224293 0.0 10011647
20:00+12юв3651100 0.0 999286
20 мая, чт
чт2023:00+8всв1173100 0.0 99926
02:00+7ссв3781100 0.0 1000342
05:00+6св2680100 0.0 1001356
08:00+6ссз2287100 0.5 1004336
11:00+6ссз2285100 0.1 1005465
14:00+7ссз1181100 0.1 1005635
17:00+9вюв2472100 0.0 1001740
20:00+6юв4893100 1.8 1001525
21 мая, пт
пт2123:00+6в1496100 1.8 1001218
02:00+6с1194100 1.9 100048
05:00+6сз1194100 0.0 100040
08:00+5з3796100 0.1 1001354
11:00+3сз51096100 1.2 1004595
14:00+5зсз4894100 1.3 1005774
17:00+3зсз61397100 8.0 1006899
20:00+4сз71297100 13.1 10071050
22 мая, сб
сб2223:00+3сз61397100 3.6 10091028
02:00+4сз71596100 6.4 10091210
05:00+4сз61487100 0.3 1009780
08:00+6сз81581100 0.3 1010883
11:00+9сз81366100 0.5 10101837
14:00+11сз81258100 1.5 10102237
17:00+11сз71156100 1.1 10091921
20:00+9зсз5963100 1.2 1010991